ABR659 LIMF-LIMJ

Flight info

Callsign ABR659
Flight time 0h 28m
Altitude 19000
Route LAGEN L50 IXITO
Aircraft B461/M-SDFGIRWY/LB1

Departure

Time 2026-04-26 21:00
Airport Turin Airport (LIMF)

Arrival

Time 2026-04-26 21:28
Airport Genoa Cristoforo Colombo Airport (LIMJ)
Time Latitude Longitude Altitude Speed Heading
2026-04-26 20:41 45.19659 7.64600 961 ft 0 kts 92°
2026-04-26 20:44 45.19659 7.64599 961 ft 0 kts 92°
2026-04-26 20:55 45.19659 7.64602 959 ft 2 kts 94°
2026-04-26 20:55 45.19638 7.64655 959 ft 11 kts 124°
2026-04-26 20:56 45.19542 7.64689 958 ft 17 kts 182°
2026-04-26 20:56 45.19429 7.64681 958 ft 16 kts 182°
2026-04-26 20:56 45.19320 7.64673 958 ft 16 kts 183°
2026-04-26 20:56 45.19202 7.64666 953 ft 19 kts 182°
2026-04-26 20:57 45.19064 7.64656 948 ft 20 kts 182°
2026-04-26 20:57 45.18928 7.64649 944 ft 20 kts 182°
2026-04-26 20:57 45.18783 7.64643 935 ft 22 kts 181°
2026-04-26 20:57 45.18654 7.64653 936 ft 9 kts 151°
2026-04-26 20:58 45.18651 7.64655 935 ft 0 kts 150°
2026-04-26 20:58 45.18644 7.64662 934 ft 6 kts 143°
2026-04-26 20:58 45.18621 7.64798 930 ft 20 kts 73°
2026-04-26 20:58 45.18719 7.64878 936 ft 8 kts
2026-04-26 20:59 45.18722 7.64879 936 ft 0 kts
2026-04-26 20:59 45.18861 7.64887 940 ft 55 kts
2026-04-26 21:00 45.19444 7.64927 959 ft 111 kts
2026-04-26 21:00 45.20357 7.64976 1016 ft 147 kts
2026-04-26 21:00 45.21442 7.65056 1255 ft 163 kts
2026-04-26 21:00 45.22552 7.65193 1827 ft 156 kts
2026-04-26 21:01 45.23620 7.65283 2391 ft 155 kts
2026-04-26 21:01 45.24756 7.65365 2895 ft 171 kts
2026-04-26 21:01 45.25830 7.66186 3355 ft 188 kts 57°
2026-04-26 21:01 45.26128 7.67969 3981 ft 193 kts 102°
2026-04-26 21:02 45.25672 7.69789 4651 ft 199 kts 109°
2026-04-26 21:02 45.25327 7.71734 5291 ft 208 kts 99°
2026-04-26 21:02 45.25121 7.73807 5929 ft 217 kts 97°
2026-04-26 21:02 45.24983 7.75977 6568 ft 225 kts 93°
2026-04-26 21:03 45.24934 7.78232 7168 ft 236 kts 91°
2026-04-26 21:03 45.24758 7.80600 7772 ft 248 kts 110°
2026-04-26 21:03 45.23830 7.82717 8426 ft 260 kts 127°
2026-04-26 21:03 45.22700 7.84811 9062 ft 274 kts 126°
2026-04-26 21:04 45.21538 7.87038 9715 ft 287 kts 126°
2026-04-26 21:04 45.20337 7.89382 10327 ft 298 kts 124°
2026-04-26 21:04 45.19138 7.91848 10916 ft 307 kts 124°
2026-04-26 21:04 45.17895 7.94351 11512 ft 313 kts 125°
2026-04-26 21:05 45.16607 7.96884 12113 ft 318 kts 125°
2026-04-26 21:05 45.15103 7.99187 12720 ft 322 kts 146°
2026-04-26 21:05 45.13040 8.00377 13358 ft 323 kts 167°
2026-04-26 21:05 45.10855 8.00985 13978 ft 324 kts 169°
2026-04-26 21:06 45.08692 8.01920 14540 ft 324 kts 154°
2026-04-26 21:06 45.06730 8.03513 15113 ft 324 kts 148°
2026-04-26 21:06 45.04800 8.05180 15692 ft 324 kts 148°
2026-04-26 21:06 45.02883 8.06865 16279 ft 324 kts 148°
2026-04-26 21:07 45.01005 8.08537 16863 ft 323 kts 148°
2026-04-26 21:07 44.99089 8.10182 17477 ft 321 kts 149°
2026-04-26 21:07 44.97165 8.11770 18098 ft 320 kts 150°
2026-04-26 21:07 44.95225 8.13352 18579 ft 322 kts 150°
2026-04-26 21:08 44.93257 8.14956 18788 ft 332 kts 150°
2026-04-26 21:08 44.91249 8.16678 18888 ft 343 kts 148°
2026-04-26 21:08 44.89165 8.18445 18947 ft 354 kts 149°
2026-04-26 21:08 44.87000 8.20235 18976 ft 366 kts 150°
2026-04-26 21:09 44.84796 8.22049 18999 ft 377 kts 150°
2026-04-26 21:09 44.82488 8.23944 18991 ft 389 kts 150°
2026-04-26 21:09 44.80123 8.25890 19010 ft 400 kts 150°
2026-04-26 21:09 44.77687 8.27899 19010 ft 411 kts 150°
2026-04-26 21:10 44.75188 8.29964 19003 ft 421 kts 150°
2026-04-26 21:10 44.72670 8.32094 19001 ft 423 kts 149°
2026-04-26 21:10 44.70167 8.34156 19005 ft 405 kts 150°
2026-04-26 21:10 44.67793 8.36084 18996 ft 383 kts 150°
2026-04-26 21:11 44.65550 8.37909 18979 ft 363 kts 150°
2026-04-26 21:11 44.63449 8.39710 18975 ft 345 kts 150°
2026-04-26 21:11 44.61450 8.41365 18951 ft 329 kts 150°
2026-04-26 21:11 44.59455 8.42985 18433 ft 332 kts 151°
2026-04-26 21:12 44.57457 8.44593 18055 ft 329 kts 151°
2026-04-26 21:12 44.55478 8.46187 17646 ft 326 kts 150°
2026-04-26 21:12 44.53531 8.47800 17241 ft 324 kts 149°
2026-04-26 21:12 44.51600 8.49417 16838 ft 322 kts 150°
2026-04-26 21:13 44.49685 8.50961 16452 ft 320 kts 150°
2026-04-26 21:13 44.47750 8.52504 16065 ft 319 kts 150°
2026-04-26 21:13 44.45845 8.54110 15682 ft 317 kts 148°
2026-04-26 21:13 44.43949 8.55692 15323 ft 315 kts 149°
2026-04-26 21:14 44.42055 8.57234 14962 ft 314 kts 149°
2026-04-26 21:14 44.40191 8.58731 14615 ft 312 kts 149°
2026-04-26 21:14 44.38305 8.60236 14280 ft 309 kts 149°
2026-04-26 21:14 44.36435 8.61721 13960 ft 307 kts 149°
2026-04-26 21:15 44.34608 8.63247 13588 ft 305 kts 148°
2026-04-26 21:15 44.32785 8.64752 13233 ft 303 kts 149°
2026-04-26 21:15 44.30965 8.66206 12881 ft 300 kts 149°
2026-04-26 21:15 44.29153 8.67642 12543 ft 298 kts 149°
2026-04-26 21:16 44.27392 8.69087 12202 ft 296 kts 148°
2026-04-26 21:16 44.25628 8.70555 11867 ft 294 kts 149°
2026-04-26 21:16 44.23850 8.71978 11535 ft 293 kts 149°
2026-04-26 21:16 44.22084 8.73376 11212 ft 291 kts 149°
2026-04-26 21:17 44.20332 8.74782 10894 ft 289 kts 148°
2026-04-26 21:17 44.18619 8.76225 10583 ft 287 kts 149°
2026-04-26 21:17 44.16938 8.77706 10272 ft 285 kts 138°
2026-04-26 21:17 44.15822 8.79901 9941 ft 282 kts 109°
2026-04-26 21:18 44.15602 8.82577 9612 ft 280 kts 81°
2026-04-26 21:18 44.16308 8.85085 9315 ft 279 kts 53°
2026-04-26 21:18 44.17759 8.86838 9002 ft 279 kts 26°
2026-04-26 21:18 44.19632 8.87458 8701 ft 279 kts 359°
2026-04-26 21:19 44.21511 8.86827 8426 ft 279 kts 336°
2026-04-26 21:19 44.23356 8.86060 8121 ft 278 kts
2026-04-26 21:19 44.25194 8.86726 7854 ft 275 kts 32°
2026-04-26 21:19 44.26518 8.88594 7605 ft 273 kts 62°
2026-04-26 21:20 44.27015 8.91120 7365 ft 272 kts 90°
2026-04-26 21:20 44.26652 8.93698 7139 ft 271 kts 108°
2026-04-26 21:20 44.26080 8.96144 6946 ft 271 kts 108°
2026-04-26 21:20 44.25808 8.98741 6713 ft 270 kts 82°
2026-04-26 21:21 44.26438 9.01192 6513 ft 269 kts 62°
2026-04-26 21:21 44.27329 9.03494 6259 ft 269 kts 63°
2026-04-26 21:21 44.28177 9.05828 6000 ft 269 kts 64°
2026-04-26 21:21 44.29009 9.08168 5752 ft 268 kts 64°
2026-04-26 21:22 44.29838 9.10494 5516 ft 267 kts 65°
2026-04-26 21:22 44.30620 9.12846 5283 ft 266 kts 67°
2026-04-26 21:22 44.31343 9.15188 5053 ft 265 kts 67°
2026-04-26 21:23 44.33959 9.18526 4650 ft 265 kts 11°
2026-04-26 21:23 44.35762 9.18414 4586 ft 259 kts 343°
2026-04-26 21:23 44.37354 9.17126 3930 ft 276 kts 315°
2026-04-26 21:23 44.38395 9.14832 3446 ft 283 kts 290°
2026-04-26 21:24 44.39163 9.12315 3229 ft 279 kts 292°
2026-04-26 21:24 44.39468 9.09652 2929 ft 292 kts 265°
2026-04-26 21:24 44.39151 9.06803 2228 ft 292 kts 256°
2026-04-26 21:24 44.38786 9.04262 1894 ft 245 kts 263°
2026-04-26 21:25 44.38727 9.02025 1641 ft 220 kts 270°
2026-04-26 21:25 44.38780 8.99973 1534 ft 197 kts 274°
2026-04-26 21:25 44.38901 8.98230 1403 ft 172 kts 276°
2026-04-26 21:25 44.39043 8.96633 1148 ft 160 kts 278°
2026-04-26 21:26 44.39213 8.95160 989 ft 147 kts 281°
2026-04-26 21:26 44.39420 8.93780 812 ft 140 kts 283°
2026-04-26 21:26 44.39602 8.92496 715 ft 131 kts 281°
2026-04-26 21:26 44.39805 8.91279 580 ft 126 kts 285°
2026-04-26 21:27 44.40020 8.90105 485 ft 126 kts 285°
2026-04-26 21:27 44.40253 8.88937 441 ft 126 kts 288°
2026-04-26 21:27 44.40496 8.87726 368 ft 132 kts 288°
2026-04-26 21:27 44.40736 8.86495 194 ft 134 kts 287°
2026-04-26 21:28 44.40979 8.85272 39 ft 122 kts 288°
2026-04-26 21:28 44.41192 8.84221 22 ft 99 kts 287°
2026-04-26 21:28 44.41352 8.83405 20 ft 76 kts 285°
2026-04-26 21:28 44.41503 8.83089 21 ft 20 kts
2026-04-26 21:29 44.41523 8.83096 19 ft 0 kts 26°